weather.gov     
National Weather Service

Regional Weather Roundup
NWS Homepage
This page is being discontinued on March 12, 2014.
The same data is available at this site. Please update your bookmarks.
Thank you, and we apologize for the inconvenience.
Please send an email to SR-SRH.Webmaster@noaa.gov with any concerns.


Current Version
Previous Version:    01  02  03  04  05  06  07  08  09  10  11  12  13  14  15  16  17  18  19  20  21  22  23  24  25  26  27  28  29  30  
   31  32  33  34  35  36  37  38  39  40  41  42  43  44  45  46  47  48  49  50  51  52  53  54  
[Printable]
076
ASUS45 KABQ 210701
RWRNM
WEATHER ROUNDUP FOR NEW MEXICO
NATIONAL WEATHER SERVICE ALBUQUERQUE NM
100 AM MDT TUE OCT 21 2014

NOTE: "FAIR" MEANS FEW OR NO CLOUDS BELOW 12,000 FEET AGL WITH NO
       SIGNIFICANT WEATHER OR OBSTRUCTIONS TO VISION.

      THIS PRODUCT IS RELEASED AS TWO VERSIONS.  ONE VERSION NEAR
      THE TOP OF THE HOUR CONTAINING PRELIMINARY DATA FROM ALBUQUERQUE
      AND OTHER STATIONS.  A FINAL VERSION WITH ADDITIONAL DATA IS
      ISSUED ABOUT 10 MINUTES AFTER THE HOUR.

NMZ501-503-504-510>518-210800-
NORTHWEST PLATEAU/NORTHCENTRAL MOUNTAINS

CITY           SKY/WX    TMP DP  RH WIND       PRES   REMARKS
FARMINGTON     CLOUDY    55  44  66 E8        30.13S
LOS ALAMOS     PTCLDY    52  42  70 S8        30.27S
SANTA FE       MOCLDY    50  45  83 SE3       30.22F
TAOS           PTCLDY    48  37  66 W3        30.26F
ANGEL FIRE     FAIR      34  32  91 CALM      30.32F

$$
NMZ402-403-502-505>509-210800-
WESTCENTRAL MOUNTAINS/SOUTHWEST MOUNTAINS

CITY           SKY/WX    TMP DP  RH WIND       PRES   REMARKS
GALLUP         PTCLDY    43  40  89 CALM      30.18F
GRANTS         CLEAR     46  39  76 S6        30.21F
SILVER CITY    PTCLDY    52  50  93 N5        30.15S

$$
NMZ407-409-411-412-210800-
SOUTHERN DESERTS

CITY           SKY/WX    TMP DP  RH WIND       PRES   REMARKS
LORDSBURG      FAIR      54  50  87 MISG      30.08S
DEMING         MOCLDY    56  54  93 E5        30.09F
LAS CRUCES     MOCLDY    57  55  92 N3        30.12S
HOLLOMAN AFB   PTCLDY    56  56 100 CALM      30.08S
T OR C         MOCLDY    56  54  93 NW7       30.12F

$$
NMZ519>523-210800-
CENTRAL VALLEYS/CENTRAL HIGHLANDS

CITY           SKY/WX    TMP DP  RH WIND       PRES   REMARKS
ALBUQUERQUE    PTCLDY    54  47  77 SE6       30.18S
DOUBLE EAGLE   PTCLDY    49  47  90 CALM      30.20F
MORIARTY ARPT  CLOUDY    45  42  91 CALM      30.23F
CLINES CORNERS CLOUDY    47  45  93 S7        30.23F
BELEN          NOT AVBL
SOCORRO        CLOUDY    55  51  86 CALM      30.15S

$$
NMZ524>526-539-540-210800-
SOUTHCENTRAL MOUNTAINS

CITY           SKY/WX    TMP DP  RH WIND       PRES   REMARKS
RUIDOSO        NOT AVBL

$$
NMZ527>531-210800-
NORTHEAST HIGHLANDS/NORTHEAST PLAINS

CITY           SKY/WX    TMP DP  RH WIND       PRES   REMARKS
LAS VEGAS      MOCLDY    46  43  89 SW8       30.24F
RATON          PTCLDY    45  38  76 NE3       30.21F
CLAYTON        CLEAR     53  44  71 SW5       30.15F

$$
NMZ532>537-210800-
EASTCENTRAL PLAINS

CITY           SKY/WX    TMP DP  RH WIND       PRES   REMARKS
TUCUMCARI      PTCLDY    54  47  77 SW3       30.12S
CANNON AFB     PTCLDY    55  52  88 NW6       30.15S
CLOVIS AIRPORT NOT AVBL

$$
NMZ028-029-538-210800-
SOUTHEAST PLAINS

CITY           SKY/WX    TMP DP  RH WIND       PRES   REMARKS
ROSWELL        LGT RAIN  59  56  89 N7        30.11F
CARLSBAD       CLOUDY    61  58  90 NW6       30.09S
HOBBS          MOCLDY    59  59 100 NE5       30.12S


$$




U.S. Dept. of Commerce
NOAA National Weather Service
1325 East West Highway
Silver Spring, MD 20910
E-mail: w-nws.webmaster@noaa.gov
Page last modified: May 16, 2007
NATIONAL WEATHER SERVICE: for Safety, for Work, for Fun - FOR LIFE